www.pogodaiklimat.ru

Погода и климат >> Архив погоды >> Бразилия >> Мараньян >> Туриасу


ПОГОДА в Туриасу

  • Прогноз погоды в Туриасу
  • Монитор погоды в Туриасу

АРХИВ ПОГОДЫ в Туриасу

Время (UTC), дата Ветер
(напр.,м/с)
 
Видим.   Явления Облачность Т
(С)
Тd
(С)
f
(%)
Тe
(С)
Тes
(С)
Комфортность P
(гПа)
Po
(гПа)
Тmin
(С)
Tmax
(С)
R
(мм)
R24
(мм)
S
(см)
04 10.07 В 1
{2}
н/о н/о +25.0 +23.3 90 +33 +33 очень
душно
1013.8 1009.6
05 10.07 СВ 1
{2}
н/о н/о +24.8 +23.1 90 +33 +33 очень
душно
1013.3 1009.1
06 10.07 В 1
{2}
н/о н/о +24.7 +23.1 91 +33 +33 очень
душно
1012.7 1008.5
07 10.07 В 1
{2}
н/о н/о +24.8 +23.2 91 +33 +33 очень
душно
1012.6 1008.4
08 10.07 ЮВ 1
{1}
н/о н/о +24.9 +23.4 91 +33 +33 очень
душно
1013.1 1008.9
09 10.07 В 1
{3}
н/о н/о +24.5 +23.0 91 +32 +32 очень
душно
1013.2 1009.0
10 10.07 В 1
{3}
н/о н/о +23.9 +22.3 91 +31 +31 очень
душно
1013.9 1009.7
11 10.07 СВ 2
{3}
н/о н/о +24.1 +22.6 91 +32 +32 очень
душно
1014.3 1010.1
12 10.07 В 1
{3}
н/о н/о +24.8 +22.6 88 +33 +33 очень
душно
1014.6 1010.4
13 10.07 В 1
{3}
н/о н/о +26.9 +23.6 82 +37 +37 очень
душно
1014.4 1010.3
14 10.07 В 1
{3}
н/о н/о +27.3 +23.6 80 +37 +37 очень
душно
1013.9 1009.8 0.2
15 10.07 В 2
{3}
н/о н/о +28.2 +23.3 75 +38 +38 очень
душно
1013.3 1009.2
16 10.07 ЮВ 2
{4}
н/о н/о +26.1 +23.1 84 +35 +35 очень
душно
1012.7 1008.6
17 10.07 В 2
{4}
н/о н/о +28.5 +22.8 71 +38 +38 очень
душно
1011.6 1007.5
18 10.07 СВ 2
{4}
н/о н/о +26.7 +23.0 80 +36 +36 очень
душно
1011.2 1007.1
19 10.07 СВ 2
{3}
н/о н/о +27.5 +23.6 79 +37 +37 очень
душно
1010.8 1006.7
20 10.07 В 1
{3}
н/о н/о +27.3 +23.6 80 +37 +37 очень
душно
1010.9 1006.8
21 10.07 В 1
{3}
н/о н/о +26.4 +23.2 83 +36 +36 очень
душно
1011.7 1007.6
22 10.07 В 1
{2}
н/о н/о +26.0 +22.9 83 +35 +35 очень
душно
1012.2 1008.1
23 10.07 В 1
{2}
н/о н/о +25.8 +22.9 84 +34 +34 очень
душно
1013.0 1008.9
00 11.07 В 1
{2}
н/о н/о +25.5 +22.8 85 +34 +34 очень
душно
1013.4 1009.2
01 11.07 ЮВ 1
{2}
н/о н/о +25.4 +22.9 86 +34 +34 очень
душно
1013.6 1009.4
02 11.07 ЮВ 1
{1}
н/о н/о +25.3 +22.9 87 +34 +34 очень
душно
1013.6 1009.4
03 11.07 ЮВ 2
{3}
н/о н/о +25.2 +22.9 87 +33 +33 очень
душно
1013.6 1009.4
04 11.07 Ю 1
{3}
н/о н/о +23.9 +21.7 88 +31 +31 очень
душно
1012.7 1008.5
05 11.07 З 1
{2}
н/о н/о +23.2 +21.5 90 +31 +31 очень
душно
1011.8 1007.6
06 11.07 З 1
{1}
н/о н/о +22.9 +21.5 92 +31 +31 очень
душно
1011.3 1007.1
07 11.07 ЮВ 1
{1}
н/о н/о +23.0 +21.5 91 +31 +31 очень
душно
1010.8 1006.6
08 11.07 ЮВ 1
{1}
н/о н/о +23.5 +22.1 92 +30 +30 очень
душно
1011.2 1007.0
09 11.07 штиль 0
{1}
н/о н/о +22.8 +21.4 92 +30 +30 очень
душно
1011.4 1007.2
10 11.07 В 1
{2}
н/о н/о +24.3 +23.0 92 +32 +32 очень
душно
1011.8 1007.6
11 11.07 В 1
{2}
н/о н/о +26.4 +24.0 87 +37 +37 очень
душно
1012.3 1008.2
12 11.07 В 1
{3}
н/о н/о +27.4 +24.0 82 +38 +38 очень
душно
1012.5 1008.4
13 11.07 В 1
{3}
н/о н/о +28.1 +23.3 75 +38 +38 очень
душно
1012.5 1008.4
14 11.07 СВ 1
{3}
н/о н/о +29.8 +24.3 72 +42 +42 опасность
перегрева
1012.3 1008.2
15 11.07 СВ 2
{4}
н/о н/о +27.5 +23.1 77 +37 +37 очень
душно
1011.8 1007.7
16 11.07 ЮЗ 1
{3}
н/о н/о +26.0 +23.1 84 +35 +35 очень
душно
1011.2 1007.1 2
17 11.07 штиль 0
{2}
н/о н/о +27.1 +24.8 87 +39 +39 очень
душно
1010.3 1006.2 1
18 11.07 С 1
{2}
н/о н/о +29.6 +25.5 79 +44 +44 опасность
перегрева
1009.7 1005.6
19 11.07 СВ 1
{3}
н/о н/о +27.1 +24.4 85 +38 +38 очень
душно
1009.5 1005.4 3
20 11.07 В 1
{3}
н/о н/о +27.4 +24.3 83 +38 +38 очень
душно
1009.8 1005.7
21 11.07 В 1
{2}
н/о н/о +26.4 +23.1 82 +35 +35 очень
душно
1010.3 1006.2
22 11.07 СВ 1
{3}
н/о н/о +26.1 +23.1 84 +35 +35 очень
душно
1011.0 1006.9
23 11.07 СВ 2
{3}
н/о н/о +25.7 +23.1 86 +34 +34 очень
душно
1011.8 1007.7
01 12.07 СВ 2
{2}
н/о н/о +25.3 +23.2 88 +34 +34 очень
душно
1012.5 1008.4
02 12.07 В 1
{3}
н/о н/о +25.2 +23.3 89 +34 +34 очень
душно
1012.6 1008.4
03 12.07 В 1
{2}
н/о н/о +25.0 +23.2 90 +33 +33 очень
душно
1012.3 1008.1
04 12.07 В 1
{2}
н/о н/о +24.9 +23.2 90 +33 +33 очень
душно
1011.8 1007.6
05 12.07 штиль 0
{2}
н/о н/о +24.7 +23.0 90 +33 +33 очень
душно
1011.2 1007.0
06 12.07 В 1
{1}
н/о н/о +24.8 +23.2 91 +33 +33 очень
душно
1011.1 1006.9
07 12.07 штиль 0
{2}
н/о н/о +24.3 +22.8 91 +32 +32 очень
душно
1010.7 1006.5 0.2
08 12.07 ЮВ 1
{1}
н/о н/о +24.3 +23.0 92 +32 +32 очень
душно
1010.8 1006.6
09 12.07 В 1
{1}
н/о н/о +24.3 +22.9 92 +32 +32 очень
душно
1011.0 1006.8
10 12.07 В 1
{2}
н/о н/о +25.0 +23.7 93 +34 +34 очень
душно
1011.3 1007.2
11 12.07 В 1
{2}
н/о н/о +26.7 +24.4 87 +37 +37 очень
душно
1011.9 1007.8
12 12.07 В 1
{3}
н/о н/о +27.7 +24.4 82 +39 +39 очень
душно
1012.1 1008.0
13 12.07 В 1
{3}
н/о н/о +28.1 +23.7 77 +39 +39 очень
душно
1012.2 1008.1
14 12.07 В 1
{4}
н/о н/о +28.8 +24.4 77 +40 +40 очень
душно
1011.9 1007.8 0.2
15 12.07 ЮВ 1
{3}
н/о н/о +27.7 +24.3 82 +39 +39 очень
душно
1011.3 1007.2 0.6
16 12.07 СВ 1
{4}
н/о н/о +24.7 +22.8 89 +33 +33 очень
душно
1011.1 1006.9 12
17 12.07 ЮЗ 1
{2}
н/о н/о +24.4 +22.9 91 +32 +32 очень
душно
1010.5 1006.3 13
18 12.07 ЮЗ 1
{2}
н/о н/о +24.8 +23.5 92 +33 +33 очень
душно
1010.0 1005.9
19 12.07 ЮЗ 1
{3}
н/о н/о +24.9 +23.4 91 +33 +33 очень
душно
1010.4 1006.3
20 12.07 ЮВ 1
{2}
н/о н/о +24.9 +23.6 92 +34 +34 очень
душно
1011.0 1006.9 2
21 12.07 В 1
{1}
н/о н/о +24.7 +23.5 93 +33 +33 очень
душно
1011.2 1007.0
22 12.07 штиль 0
{1}
н/о н/о +24.5 +23.3 93 +33 +33 очень
душно
1011.5 1007.3
23 12.07 ЮЗ 1
{1}
н/о н/о +24.3 +23.2 94 +33 +33 очень
душно
1012.3 1008.1
00 13.07 штиль 0
{1}
н/о н/о +24.1 +23.0 94 +32 +32 очень
душно
1012.7 1008.5
01 13.07 СВ 1
{1}
н/о н/о +24.0 +22.9 94 +32 +32 очень
душно
1012.9 1008.7
02 13.07 штиль 0
{1}
н/о н/о +24.2 +23.1 94 +32 +32 очень
душно
1013.1 1008.9
03 13.07 СВ 1
{2}
н/о н/о +24.0 +23.0 94 +32 +32 очень
душно
1012.6 1008.4
04 13.07 СВ 1
{2}
н/о н/о +24.3 +23.2 94 +33 +33 очень
душно
1012.1 1007.9
05 13.07 В 1
{2}
н/о н/о +24.3 +23.2 94 +33 +33 очень
душно
1011.6 1007.4
06 13.07 штиль 0
{2}
н/о н/о +23.5 +22.5 94 +31 +31 очень
душно
1011.3 1007.1
07 13.07 Ю 2
{4}
н/о н/о +23.0 +22.0 94 +31 +31 очень
душно
1011.6 1007.4 3
08 13.07 З 1
{4}
н/о н/о +22.8 +21.8 94 +31 +31 очень
душно
1011.7 1007.5 0.4
09 13.07 Ю 1
{2}
н/о н/о +22.8 +22.0 95 +31 +31 очень
душно
1011.7 1007.5 0.4
10 13.07 Ю 1
{2}
н/о н/о +23.6 +22.6 94 +31 +31 очень
душно
1012.8 1008.6
11 13.07 З 1
{4}
н/о н/о +24.0 +22.5 91 +31 +31 очень
душно
1013.0 1008.8
12 13.07 ЮВ 1
{2}
н/о н/о +25.1 +23.6 91 +34 +34 очень
душно
1013.4 1009.2 1
14 13.07 СВ 2
{3}
н/о н/о +28.4 +25.1 82 +41 +41 опасность
перегрева
1012.4 1008.3
15 13.07 СВ 2
{5}
н/о н/о +25.6 +23.7 89 +35 +35 очень
душно
1012.0 1007.9 0.8
17 13.07 В 1
{5}
н/о н/о +25.4 +23.8 91 +35 +35 очень
душно
1010.9 1006.8 11
18 13.07 штиль 0
{3}
н/о н/о +26.1 +23.9 88 +36 +36 очень
душно
1010.0 1005.9
19 13.07 В 1
{3}
н/о н/о +27.3 +23.7 81 +37 +37 очень
душно
1009.5 1005.4
20 13.07 В 2
{4}
н/о н/о +26.7 +22.8 79 +35 +35 очень
душно
1009.9 1005.8
21 13.07 СВ 2
{4}
н/о н/о +26.4 +23.0 82 +35 +35 очень
душно
1010.3 1006.2
22 13.07 В 1
{3}
н/о н/о +26.0 +23.2 85 +35 +35 очень
душно
1010.7 1006.6
23 13.07 В 1
{3}
н/о н/о +25.6 +23.2 87 +34 +34 очень
душно
1011.2 1007.1
01 14.07 СВ 1
{2}
н/о н/о +25.5 +23.6 89 +35 +35 очень
душно
1012.4 1008.3
02 14.07 В 1
{2}
н/о н/о +25.3 +23.5 90 +34 +34 очень
душно
1012.5 1008.4
03 14.07 СВ 1
{2}
н/о н/о +25.0 +23.3 90 +33 +33 очень
душно
1012.4 1008.2
04 14.07 В 1
{2}
н/о н/о +24.7 +23.0 90 +33 +33 очень
душно
1011.8 1007.6
05 14.07 СВ 1
{2}
н/о н/о +24.6 +23.0 91 +33 +33 очень
душно
1011.0 1006.8
06 14.07 В 1
{2}
н/о н/о +24.3 +22.8 91 +32 +32 очень
душно
1010.8 1006.6
07 14.07 В 1
{2}
н/о н/о +24.1 +22.5 91 +32 +32 очень
душно
1010.6 1006.4
08 14.07 В 1
{2}
н/о н/о +23.9 +22.3 91 +31 +31 очень
душно
1010.6 1006.4
09 14.07 В 1
{2}
н/о н/о +23.8 +22.1 90 +31 +31 очень
душно
1011.1 1006.9
10 14.07 В 1
{3}
н/о н/о +24.8 +22.7 88 +33 +33 очень
душно
1011.6 1007.4
11 14.07 В 1
{3}
н/о н/о +26.3 +23.0 82 +35 +35 очень
душно
1012.1 1008.0
12 14.07 В 2
{4}
н/о н/о +27.8 +23.4 77 +38 +38 очень
душно
1012.5 1008.4
13 14.07 В 2
{5}
н/о н/о +29.7 +24.2 72 +41 +41 опасность
перегрева
1012.7 1008.6
14 14.07 В 2
{5}
н/о н/о +30.4 +24.2 70 +42 +42 опасность
перегрева
1012.2 1008.1
15 14.07 СВ 2
{5}
н/о н/о +30.5 +23.7 67 +42 +42 опасность
перегрева
1011.7 1007.6
16 14.07 СВ 2
{5}
н/о н/о +30.8 +24.4 69 +43 +43 опасность
перегрева
1010.8 1006.7
17 14.07 СВ 2
{5}
н/о н/о +30.9 +24.0 67 +43 +43 опасность
перегрева
1009.9 1005.8
18 14.07 В 2
{5}
н/о н/о +30.4 +23.3 66 +41 +41 опасность
перегрева
1009.4 1005.3
19 14.07 В 2
{4}
н/о н/о +30.0 +22.4 64 +39 +39 очень
душно
1009.4 1005.3
20 14.07 В 2
{4}
н/о н/о +28.4 +22.2 69 +37 +37 очень
душно
1009.8 1005.7
21 14.07 В 1
{4}
н/о н/о +27.3 +22.1 73 +35 +35 очень
душно
1010.3 1006.2
22 14.07 В 1
{4}
н/о н/о +26.2 +21.8 77 +34 +34 очень
душно
1010.7 1006.6
23 14.07 СВ 1
{3}
н/о н/о +25.5 +21.9 81 +33 +33 очень
душно
1011.3 1007.2
00 15.07 В 1
{2}
н/о н/о +25.1 +22.1 83 +32 +32 очень
душно
1012.0 1007.8
01 15.07 СВ 1
{2}
н/о н/о +24.9 +22.2 85 +32 +32 очень
душно
1012.2 1008.0
02 15.07 СВ 1
{2}
н/о н/о +24.7 +22.3 87 +32 +32 очень
душно
1012.1 1007.9
03 15.07 СВ 1
{2}
н/о н/о +24.7 +22.4 87 +32 +32 очень
душно
1011.7 1007.5
04 15.07 В 1
{2}
н/о н/о +24.5 +22.4 88 +32 +32 очень
душно
1011.1 1006.9
05 15.07 СВ 1
{2}
н/о н/о +24.4 +22.4 89 +32 +32 очень
душно
1010.4 1006.2
06 15.07 СВ 1
{2}
н/о н/о +24.2 +22.4 90 +32 +32 очень
душно
1010.0 1005.8
07 15.07 СВ 1
{1}
н/о н/о +24.2 +22.4 90 +32 +32 очень
душно
1010.0 1005.8
08 15.07 СВ 1
{2}
н/о н/о +24.1 +22.4 90 +31 +31 очень
душно
1010.1 1005.9
09 15.07 СВ 1
{2}
н/о н/о +24.1 +22.5 91 +32 +32 очень
душно
1010.6 1006.4
10 15.07 В 1
{2}
н/о н/о +25.0 +23.2 90 +33 +33 очень
душно
1010.9 1006.8
11 15.07 В 1
{3}
н/о н/о +26.2 +23.3 84 +35 +35 очень
душно
1011.5 1007.4
12 15.07 В 1
{3}
н/о н/о +27.9 +23.9 79 +39 +39 очень
душно
1011.9 1007.8
13 15.07 В 1
{3}
н/о н/о +28.6 +23.6 74 +39 +39 очень
душно
1012.0 1007.9
14 15.07 В 1
{3}
н/о н/о +30.4 +24.2 70 +42 +42 опасность
перегрева
1011.8 1007.7
15 15.07 В 1
{3}
н/о н/о +30.6 +23.8 67 +42 +42 опасность
перегрева
1011.2 1007.1
16 15.07 В 1
{3}
н/о н/о +31.6 +24.1 65 +44 +44 опасность
перегрева
1010.4 1006.3
17 15.07 В 1
{3}
н/о н/о +31.0 +23.3 64 +42 +42 опасность
перегрева
1009.8 1005.7
18 15.07 В 1
{3}
н/о н/о +29.6 +23.2 69 +40 +40 очень
душно
1009.3 1005.2
20 15.07 СВ 2
{4}
н/о н/о +28.1 +22.9 73 +37 +37 очень
душно
1009.7 1005.6
21 15.07 СВ 2
{4}
н/о н/о +27.5 +22.8 76 +37 +37 очень
душно
1010.2 1006.1
22 15.07 СВ 2
{3}
н/о н/о +26.8 +23.1 80 +36 +36 очень
душно
1010.7 1006.6
23 15.07 СВ 2
{3}
н/о н/о +26.3 +23.1 83 +35 +35 очень
душно
1011.0 1006.9
00 16.07 В 1
{3}
н/о н/о +25.9 +23.1 85 +35 +35 очень
душно
1011.8 1007.7
01 16.07 СВ 1
{2}
н/о н/о +25.7 +23.2 86 +34 +34 очень
душно
1012.5 1008.4
02 16.07 СВ 1
{2}
н/о н/о +25.4 +23.3 88 +34 +34 очень
душно
1012.2 1008.1
03 16.07 СВ 1
{2}
н/о н/о +25.3 +23.4 89 +34 +34 очень
душно
1011.8 1007.7
04 16.07 СВ 1
{2}
н/о н/о +25.1 +23.3 90 +34 +34 очень
душно
1011.4 1007.3
05 16.07 СВ 1
{2}
н/о н/о +24.8 +23.2 91 +33 +33 очень
душно
1010.6 1006.5
06 16.07 СВ 1
{2}
н/о н/о +25.4 +23.6 90 +35 +35 очень
душно
1010.7 1006.6
07 16.07 В 1
{2}
н/о н/о +25.2 +23.6 91 +34 +34 очень
душно
1010.8 1006.7
08 16.07 СВ 1
{2}
н/о н/о +25.1 +23.6 91 +34 +34 очень
душно
1010.7 1006.6
09 16.07 В 1
{2}
н/о н/о +24.8 +23.4 92 +33 +33 очень
душно
1011.2 1007.0
10 16.07 В 1
{2}
н/о н/о +24.2 +22.7 91 +32 +32 очень
душно
1012.1 1007.9
11 16.07 В 1
{2}
н/о н/о +25.1 +22.2 84 +33 +33 очень
душно
1012.9 1008.7
12 16.07 В 1
{2}
н/о н/о +26.5 +22.1 77 +34 +34 очень
душно
1013.1 1009.0
13 16.07 В 1
{3}
н/о н/о +29.0 +23.8 74 +40 +40 очень
душно
1013.1 1009.0
14 16.07 В 2
{4}
н/о н/о +30.4 +24.4 70 +42 +42 опасность
перегрева
1013.0 1008.9
15 16.07 СВ 2
{4}
н/о н/о +29.3 +24.4 75 +41 +41 опасность
перегрева
1012.6 1008.5
16 16.07 СВ 2
{4}
н/о н/о +28.3 +24.2 78 +39 +39 очень
душно
1011.5 1007.4 0.4
17 16.07 СВ 1
{5}
н/о н/о +28.8 +24.8 79 +41 +41 опасность
перегрева
1010.5 1006.4 0.2
18 16.07 СВ 2
{5}
н/о н/о +28.6 +23.7 75 +39 +39 очень
душно
1010.0 1005.9
19 16.07 В 2
{5}
н/о н/о +28.8 +23.1 71 +39 +39 очень
душно
1010.2 1006.1
20 16.07 Ю 2
{4}
н/о н/о +24.8 +21.9 84 +32 +32 очень
душно
1011.0 1006.8 0.4
21 16.07 ЮЗ 2
{3}
н/о н/о +24.5 +22.8 90 +32 +32 очень
душно
1011.5 1007.3 7
22 16.07 ЮВ 2
{4}
н/о н/о +24.3 +22.7 91 +32 +32 очень
душно
1012.4 1008.2 11
23 16.07 СЗ 1
{4}
н/о н/о +23.8 +22.4 92 +31 +31 очень
душно
1012.6 1008.4 7
01 17.07 В 1
{1}
н/о н/о +24.1 +22.7 92 +32 +32 очень
душно
1013.4 1009.2
02 17.07 В 1
{2}
н/о н/о +24.7 +23.4 92 +33 +33 очень
душно
1013.5 1009.3
03 17.07 СВ 1
{2}
н/о н/о +24.8 +23.6 93 +34 +34 очень
душно
1013.3 1009.1

 

Местоположение метеостанции Туриасу (Мараньян, Бразилия): широта -1.67 долгота -45.37 высота над уровнем моря 43 м.

В архиве по умолчанию представлена погода в Туриасу за последнюю неделю. Архивные данные за месяц целиком и за предыдущие месяцы, начиная с января 2011 года, Вы можете получить, выбрав интересующий диапазон дат из раскрывающегося списка и нажав кнопку "Ввод!".


*Определитесь, кто Вы:
робот инопланетянин человек

Внимание! Время в таблицах - всемирное. Для получения местного времени необходимо прибавить поправку, которая равна -3 ч.

Смотрите также архив погоды в соседних городах и на ближайших метеорологических станциях:

Погода в Туриасу (Мараньян, Бразилия) (6 км)
Погода в Сан-Луисе (Мараньян, Бразилия) (160 км)
Погода в Сан-Луисе (Мараньян, Бразилия) (164 км)
Погода в Брагансе (Пара, Бразилия) (171 км)
Погода в Тракуатеуа (Пара, Бразилия) (185 км)
Погода в Капитан-Посу (Пара, Бразилия) (188 км)
Погода в Сантане (Амапа, Бразилия) (206 км)
Погода на Прегуике (Мараньян, Бразилия) (212 км)
Погода в Салинополисе (Пара, Бразилия) (249 км)
Погода в Салинополисе (Пара, Бразилия) (252 км)

Пояснения к столбцам:

Ветер - указаны скорость ветра в м/с - средняя за 10 мин, порывы в срок и между сроками (в фигурных скобках) и направление, откуда дует ветер: С - северный, СВ - северо-восточный, В - восточный, ЮВ - юго-восточный, Ю - южный, ЮЗ - юго-западный, З - западный, СЗ - северо-западный.
Видимость - горизонтальная дальность видимости в метрах или километрах. При видимости от 1 до 10 км при отсутствии осадков обычно наблюдается дымка, при ухудшении видимости до 1 км и менее - туман. В сухую погоду видимость может ухудшаться дымом, пылью или мглою.
Явления - указаны атмосферные явления, наблюдавшиеся в срок или в последний час перед сроком; фигурными скобками обозначены явления, наблюдавшиеся между сроками (за 1-3 часа до срока); квадратными скобками обозначены град или гололедные отложения с указанием их диаметра в мм.
Облачность - указаны через наклонную черту общая и нижняя облачность в баллах и высота нижней границы облаков в метрах; квадратными скобками обозначены формы облаков: Ci - перистые, Cs - перисто-слоистые, Cc - перисто-кучевые, Ac - высококучевые, As - высокослоистые, Sc - слоисто-кучевые, Ns - слоисто-дождевые, Cu - кучевые, Cb - кучево-дождевые. Подробнее классификацию облаков см. в Атласе облаков (PDF).
T - Температура воздуха - температура, измеренная на высоте 2 м над землей.
Td - Температура точки росы - температура, при понижении до которой содержащийся в воздухе водяной пар достигнет насыщения.
f - Относительная влажность воздуха - влажноcть воздуха, измеренная на высоте 2 м над землей.
Te - Эффективная температура - температура, которую ощущает одетый по сезону человек в тени. Характеристика душности погоды. При расчете учитывается влияние влажности воздуха и скорости ветра на теплоощущения человека.
Tes - Эффективная температура на солнце - температура, которую ощущает человек, с поправкой на солнечный нагрев. Характеристика знойности погоды. Зависит от высоты солнца над горизонтом, облачности и скорости ветра. Ночью, в пасмурную погоду, а также при ветре 12 м/с и более поправка равна нулю.
P - Атмосферное давление - приведенное к уровню моря атмосферное давление.
Po - Атмосферное давление - измеренное на уровне метеостанции атмосферное давление.
Tmin - Минимальная температура - минимум температуры воздуха на высоте 2 м над землей.
Tmax - Максимальная температура - максимум температуры воздуха на высоте 2 м над землей.
R - Количество осадков - Количество выпавших осадков за период времени, мм. При наведении курсора мыши на число - период времени, за который выпало указанное количество осадков.
R24 - Количество осадков - Количество выпавших осадков за 24 часа, мм.
S - Снежный покров - Высота снежного покрова, см. При наведении курсора мыши на число - состояние снежного покрова и степень покрытия местности в баллах.